Temperature
1 1 0 0 -0 -1 -0 1 2 3 2 2 1 -0 -1 -1 -2 -2 -3 -3 -3 -3 -3 -2 -2 -2 -2 -2 -2 -2 -2 -2 -2 -2 -2 -2 -2 -2 -2 -2 -1 -1 -1 -1
-0 -0 -1 -1 -1 -1 -1 -0 -0 0 0 0 -1 -2 -2 -3 -3 -3 -3 -3 -3 -3 -3 -3 -3 -3 -3 -3 -3 -3 -3 -2 -2 -2 -2 -2 -2 -2 -2 -2 -2 -2 -2 -2
2 -1 -1 1 0 -1 -1 -1 -1 -0 0 -1 -2 -2 -3 -3 -4 -4 -4 -4 -4 -4 -4 -3 -3 -3 -3 -3 -3 -3 -3 -3 -3 -3 -3 -3 -3 -3 -3 -3 -3 -3 -3 -3
0 -0 1 3 -2 -2 -2 -2 -2 -2 -2 -2 -3 -4 -4 -4 -4 -4 -4 -4 -4 -4 -4 -4 -4 -4 -4 -4 -4 -4 -4 -3 -3 -3 -3 -3 -3 -3 -3 -3 -3 -3 -3 -3
-0 0 1 1 -2 -3 -3 -2 -2 -3 -3 -3 -4 -4 -3 -3 -4 -4 -4 -5 -5 -5 -5 -4 -4 -4 -4 -4 -4 -4 -4 -4 -4 -4 -4 -4 -4 -4 -4 -4 -4 -4 -4 -4
-1 -0 1 2 -2 -4 -3 -1 -2 -4 -4 -4 -5 -2 -2 -4 -4 -4 -5 -5 -5 -5 -5 -5 -5 -5 -5 -5 -5 -5 -5 -5 -5 -5 -5 -5 -5 -5 -5 -5 -5 -5 -5 -5
-2 -1 0 -1 -5 -4 -1 0 -3 -4 -4 -5 -5 -4 -4 -5 -5 -5 -5 -5 -6 -6 -5 -6 -6 -6 -6 -6 -6 -6 -6 -6 -6 -6 -6 -6 -6 -6 -6 -6 -6 -6 -6 -6
-2 -2 -0 -4 -5 -3 -1 -3 -4 -4 -4 -5 -5 -5 -5 -6 -6 -6 -6 -6 -6 -6 -6 -6 -6 -6 -6 -6 -6 -6 -6 -6 -6 -6 -6 -6 -7 -7 -7 -7 -7 -7 -7 -6
-2 -1 -2 -5 -4 -4 -4 -4 -4 -4 -5 -5 -6 -6 -6 -6 -6 -6 -6 -6 -6 -7 -7 -7 -7 -7 -7 -7 -7 -7 -7 -7 -7 -7 -7 -7 -7 -7 -7 -7 -8 -7 -7 -7
-4 -3 -4 -5 -5 -5 -5 -5 -5 -5 -5 -6 -6 -6 -6 -7 -7 -7 -7 -7 -7 -7 -7 -7 -7 -7 -8 -8 -8 -7 -7 -7 -7 -8 -8 -8 -8 -8 -8 -8 -8 -8 -8 -8
-5 -5 -5 -5 -5 -5 -5 -5 -5 -6 -6 -6 -7 -7 -7 -7 -7 -7 -7 -7 -8 -8 -8 -8 -8 -8 -8 -8 -8 -8 -8 -8 -8 -8 -8 -8 -8 -8 -8 -8 -8 -8 -8 -8
-3 -4 -5 -5 -4 -5 -5 -6 -6 -6 -6 -6 -7 -7 -8 -8 -8 -8 -8 -8 -8 -8 -8 -8 -8 -8 -8 -8 -9 -9 -9 -9 -9 -9 -9 -9 -9 -9 -9 -9 -9 -9 -9 -9
-5 -5 -5 -5 -6 -6 -6 -6 -6 -7 -7 -7 -7 -8 -8 -8 -8 -8 -8 -8 -9 -9 -9 -9 -9 -9 -9 -9 -9 -9 -9 -9 -9 -9 -9 -10 -10 -10 -9 -9 -9 -9 -9 -9
-6 -6 -7 -7 -6 -7 -7 -7 -7 -7 -8 -8 -8 -8 -8 -9 -9 -9 -9 -9 -9 -9 -9 -9 -9 -9 -9 -10 -10 -10 -10 -10 -10 -10 -10 -10 -10 -10 -10 -10 -10 -10 -10 -10
-7 -7 -7 -7 -7 -8 -8 -8 -8 -8 -8 -8 -8 -9 -9 -9 -9 -9 -9 -9 -9 -10 -10 -10 -10 -10 -10 -10 -10 -10 -10 -10 -10 -10 -10 -11 -11 -11 -11 -11 -11 -10 -10 -10
-8 -8 -8 -8 -8 -8 -8 -9 -9 -9 -9 -9 -9 -9 -9 -9 -9 -9 -10 -10 -10 -10 -10 -10 -10 -10 -10 -10 -10 -10 -11 -11 -11 -11 -11 -11 -11 -11 -11 -11 -11 -11 -11 -11
-9 -9 -9 -9 -9 -9 -9 -9 -9 -9 -9 -9 -9 -10 -10 -10 -10 -10 -10 -10 -10 -10 -10 -11 -11 -11 -11 -11 -11 -11 -11 -11 -11 -11 -11 -11 -11 -12 -12 -12 -12 -12 -12 -12
-8 -8 -8 -9 -9 -9 -9 -9 -9 -10 -10 -10 -10 -10 -10 -10 -10 -10 -10 -11 -11 -11 -11 -11 -11 -11 -11 -11 -11 -11 -11 -11 -11 -12 -12 -12 -12 -12 -12 -12 -12 -12 -12 -12
-8 -8 -9 -9 -9 -9 -9 -9 -10 -10 -10 -10 -10 -10 -10 -10 -11 -11 -11 -11 -11 -11 -11 -11 -11 -11 -11 -11 -11 -11 -12 -12 -12 -12 -12 -12 -12 -12 -12 -12 -12 -12 -12 -12
-9 -9 -9 -9 -9 -10 -10 -10 -10 -10 -10 -10 -11 -11 -11 -11 -11 -11 -11 -11 -11 -12 -11 -12 -12 -12 -12 -12 -12 -12 -12 -12 -12 -12 -12 -12 -12 -13 -13 -13 -13 -13 -13 -13
-9 -9 -10 -10 -10 -10 -10 -10 -10 -10 -10 -11 -11 -11 -11 -11 -11 -11 -12 -12 -12 -12 -12 -12 -12 -12 -12 -12 -12 -12 -12 -12 -12 -12 -12 -13 -13 -13 -13 -13 -13 -13 -13 -13
-10 -10 -10 -10 -10 -10 -10 -10 -10 -10 -11 -11 -11 -11 -11 -11 -12 -12 -12 -12 -12 -12 -12 -13 -12 -12 -12 -12 -12 -12 -12 -12 -12 -13 -13 -13 -13 -13 -13 -13 -13 -13 -13 -13
-10 -10 -10 -11 -11 -11 -11 -11 -11 -11 -11 -11 -11 -11 -12 -12 -12 -12 -12 -12 -13 -13 -13 -13 -13 -13 -13 -12 -12 -12 -13 -13 -13 -13 -13 -13 -13 -13 -13 -13 -13 -13 -13 -13
-11 -11 -11 -11 -11 -11 -11 -11 -11 -11 -11 -11 -12 -12 -12 -12 -12 -13 -13 -13 -13 -13 -13 -13 -13 -13 -13 -13 -13 -13 -13 -13 -13 -13 -13 -13 -13 -13 -13 -13 -13 -13 -13 -13
-11 -11 -11 -11 -11 -12 -12 -12 -12 -12 -12 -12 -12 -12 -12 -13 -13 -13 -13 -13 -13 -13 -13 -13 -13 -13 -13 -13 -13 -13 -13 -13 -13 -13 -13 -13 -13 -13 -13 -13 -14 -14 -14 -14
-11 -12 -12 -12 -12 -12 -12 -12 -12 -12 -12 -12 -13 -13 -13 -13 -13 -13 -13 -13 -13 -13 -14 -14 -14 -13 -13 -13 -13 -13 -13 -13 -13 -13 -13 -13 -14 -14 -14 -14 -14 -14 -14 -14
-12 -12 -12 -12 -12 -12 -13 -13 -13 -13 -13 -13 -13 -13 -13 -13 -13 -13 -14 -14 -14 -14 -14 -14 -14 -14 -14 -14 -14 -14 -14 -14 -14 -14 -14 -14 -14 -14 -14 -14 -14 -14 -14 -14
Wind_Speed
10 10 8 9 10 9 11 11 11 13 14 15 11 11 11 10 9 9 9 9 8 8 8 7 6 6 5 5 5 4 5 5 6 6 6 5 5 5 5 5 6 6 6 7
7 7 8 11 13 13 13 12 15 17 16 12 11 9 9 9 9 9 9 9 9 9 8 8 7 7 6 6 5 5 5 6 5 5 5 5 5 5 4 5 5 5 6 6
6 4 6 10 9 10 7 8 9 12 11 9 9 9 9 9 8 8 10 9 9 9 8 8 7 7 6 6 5 5 5 5 4 4 5 4 4 4 4 4 4 5 5 6
4 4 8 4 1 4 7 8 10 10 10 10 9 9 8 7 7 8 9 9 9 8 8 8 7 6 6 5 5 4 4 4 4 4 4 4 3 4 4 4 4 5 5 6
3 5 10 6 2 3 5 8 8 10 11 10 7 7 6 5 6 8 9 9 8 7 7 7 6 6 5 5 4 4 4 5 5 4 4 3 4 4 4 4 4 5 5 6
5 6 8 4 0 0 2 6 4 5 7 7 4 6 6 5 7 8 7 7 7 7 6 6 6 5 4 4 4 5 5 5 5 4 4 4 4 4 4 4 4 4 4 5
9 8 9 2 1 2 4 5 1 3 5 4 5 7 6 7 7 7 7 7 7 6 5 5 5 4 4 5 5 5 5 5 5 4 4 4 4 4 4 4 4 4 4 4
6 8 9 3 5 5 5 4 3 4 4 5 6 6 6 7 7 7 7 7 6 6 6 5 5 4 5 5 6 5 5 5 5 5 4 3 3 3 3 3 3 3 3 3
8 8 3 5 5 4 4 5 5 5 5 5 6 6 7 7 7 7 7 7 6 6 6 5 5 4 5 6 5 5 5 5 5 5 4 3 3 3 3 3 3 3 3 3
8 11 8 8 7 7 6 7 6 6 5 5 6 7 7 7 7 7 7 7 6 6 6 6 5 5 5 5 5 4 4 5 4 4 4 3 3 3 3 3 3 3 3 4
10 10 9 8 9 9 8 7 7 6 6 6 7 7 7 7 7 7 6 6 5 5 6 7 6 6 5 5 4 4 4 4 4 4 3 3 3 3 3 3 4 4 4 4
10 7 6 8 7 6 6 7 7 7 7 6 6 7 7 7 7 6 6 6 6 6 6 7 6 6 6 5 4 4 4 4 3 3 3 3 3 3 3 4 4 5 5 4
8 6 7 8 7 6 7 7 6 6 6 6 6 6 6 6 6 6 6 6 6 6 6 6 6 6 6 5 4 4 4 4 3 3 3 3 2 3 3 4 4 4 4 4
7 6 7 7 7 7 6 6 5 4 5 5 5 5 5 5 6 6 7 7 6 6 6 6 6 6 6 5 4 4 4 4 4 3 3 3 3 3 3 3 3 3 4 5
7 6 7 6 5 5 5 4 4 5 5 5 4 4 4 5 6 7 7 5 5 5 5 5 5 6 5 4 3 4 4 3 3 3 2 2 2 2 2 3 3 3 3 4
4 4 4 5 6 6 5 5 5 6 6 6 5 5 5 6 6 6 5 4 4 5 5 5 6 6 4 4 3 3 3 4 3 2 2 2 2 2 2 2 3 2 3 3
3 4 5 6 7 7 7 7 6 6 6 6 6 5 4 4 4 5 5 4 4 5 5 5 5 5 4 3 3 3 3 3 3 2 2 2 2 2 2 2 3 3 3 4
6 6 6 6 6 6 6 6 6 6 6 6 5 4 4 4 5 5 5 4 4 5 5 5 4 4 3 3 3 3 2 2 2 2 2 2 2 2 2 2 3 3 3 4
3 4 4 4 4 4 4 5 5 5 5 4 3 4 5 5 5 5 4 4 4 5 5 4 4 3 3 4 3 2 2 2 2 2 2 2 2 2 2 2 3 3 3 3
3 3 3 4 3 3 4 4 4 4 4 3 3 4 4 5 4 4 4 4 4 4 4 4 4 3 3 3 3 2 2 2 2 2 2 2 2 2 2 2 2 3 2 2
3 3 3 4 4 4 4 3 3 4 4 3 3 4 5 5 4 3 3 4 4 4 4 4 3 3 3 3 3 2 2 2 2 2 2 2 2 2 2 2 2 2 2 2
3 3 4 4 4 4 4 3 3 3 3 3 4 4 4 4 4 4 4 4 4 4 4 3 3 4 4 3 1 1 1 2 2 2 2 2 2 2 2 2 2 2 2 3
4 4 4 4 4 4 4 4 3 3 4 4 4 4 4 4 3 3 4 3 3 4 3 2 4 5 4 2 1 1 1 2 2 2 2 2 2 2 2 2 2 2 2 3
4 4 4 3 2 3 4 4 4 3 4 4 4 4 4 3 3 3 4 5 5 5 3 4 5 5 3 1 1 2 2 2 2 2 2 2 2 2 2 2 2 2 3 3
3 3 3 2 3 3 4 4 3 3 3 3 4 4 3 3 3 4 3 4 4 4 3 3 4 4 3 2 2 2 2 2 2 2 2 2 2 2 2 2 2 3 3 3
3 3 3 3 3 3 2 2 3 3 3 3 4 3 3 2 3 3 3 3 4 4 3 2 3 3 2 2 2 2 2 2 3 2 2 2 2 3 3 2 3 3 3 3
3 2 2 2 2 2 2 2 3 3 3 3 4 3 3 2 2 2 2 2 2 2 2 2 2 2 2 2 2 2 2 2 2 2 2 2 2 2 3 3 3 3 4 4
Wind_Direction
267 276 274 268 263 241 229 237 250 266 270 281 292 293 296 300 305 308 310 312 310 308 308 307 306 303 301 300 298 291 280 275 268 265 261 258 255 253 248 245 239 236 235 235
270 265 267 271 265 249 244 247 252 267 275 283 293 296 295 297 301 301 305 309 311 311 310 307 304 303 301 299 297 290 280 276 273 267 261 256 255 254 251 250 248 243 239 239
273 297 289 267 251 228 232 232 239 252 267 293 296 296 295 297 297 296 302 307 310 310 309 306 304 302 298 297 298 293 289 285 278 267 261 260 258 254 251 252 250 249 249 244
281 297 257 261 85 221 234 245 239 256 280 290 290 298 293 291 294 302 305 306 308 310 311 310 308 308 303 301 299 297 297 298 292 283 273 268 261 254 257 257 253 253 253 252
243 265 274 277 232 204 230 265 241 252 273 290 310 306 290 301 304 299 302 305 308 310 311 313 313 313 310 305 305 304 303 303 299 290 280 275 269 265 264 258 257 256 256 252
230 251 259 273 147 310 230 268 241 242 269 292 312 295 298 324 319 311 310 312 314 317 317 315 318 320 310 307 310 306 306 305 303 294 280 273 269 269 266 258 256 258 260 257
232 246 263 276 146 169 233 280 300 253 263 256 254 273 300 309 310 310 311 313 316 315 313 313 320 319 308 308 304 305 309 308 304 298 286 278 273 268 265 260 260 261 263 267
209 230 253 157 153 207 260 320 292 277 266 258 268 284 294 298 302 306 311 313 314 313 313 317 320 314 306 304 308 314 313 309 306 302 295 286 279 275 269 263 258 264 269 276
211 233 289 183 218 254 294 285 280 280 276 265 271 278 286 292 296 300 305 310 312 309 311 316 317 308 300 306 313 312 312 309 308 305 298 288 276 272 268 259 254 258 262 267
253 260 263 253 260 273 276 276 280 282 280 268 271 277 284 289 292 297 303 306 308 307 306 310 314 307 299 307 311 306 306 308 308 305 302 295 279 267 258 254 253 255 256 261
258 272 283 260 252 262 268 269 272 278 274 267 269 278 282 286 288 292 297 302 303 298 299 303 312 312 312 310 309 305 304 303 303 299 296 295 286 277 268 263 254 254 260 264
255 258 256 273 277 267 259 263 264 269 278 275 265 271 280 282 285 288 292 298 301 299 300 303 309 311 314 313 306 300 302 305 305 303 301 299 300 303 299 288 289 278 278 279
259 279 275 280 282 277 273 274 272 266 266 275 276 271 275 281 286 288 291 295 295 295 297 301 306 307 310 310 303 292 291 296 297 295 296 298 298 298 306 316 316 315 311 307
264 277 277 273 277 282 280 285 289 287 281 276 275 276 277 281 286 286 288 290 291 292 295 298 301 304 310 309 301 293 291 293 293 290 293 293 290 290 293 298 306 309 316 320
273 271 269 282 286 288 286 285 288 288 293 294 289 280 277 278 280 283 287 292 291 291 293 297 299 303 312 309 300 294 292 294 292 289 290 289 288 288 292 297 298 303 316 320
293 292 278 273 275 278 278 274 272 278 284 286 286 283 278 278 282 286 290 287 284 289 293 295 295 302 307 305 301 298 293 296 294 287 286 286 284 285 288 292 298 303 308 314
266 281 280 280 275 276 272 267 267 272 277 275 276 281 282 283 287 290 293 290 283 284 287 288 294 302 303 297 291 291 292 293 290 282 277 279 279 279 281 284 289 294 298 309
257 260 256 259 263 268 273 272 270 272 274 276 280 279 274 271 277 286 293 298 299 296 294 293 298 305 299 297 288 285 282 284 276 270 274 274 277 277 275 277 283 289 297 306
272 270 272 270 270 268 271 274 276 277 278 274 270 271 273 275 279 286 293 292 292 296 304 306 309 308 298 294 293 281 277 277 270 266 268 272 277 276 275 277 281 285 291 297
285 288 289 289 291 278 274 280 282 283 282 275 274 280 282 283 283 284 282 279 281 288 298 303 302 298 296 291 293 282 272 266 264 268 269 264 262 269 272 275 279 282 285 287
286 290 291 291 294 290 280 278 276 280 284 275 266 270 276 285 285 279 280 290 299 303 298 299 302 301 299 299 288 278 273 273 274 272 268 262 262 265 268 272 274 277 281 283
280 283 285 287 287 290 292 287 278 279 283 282 278 279 282 287 290 285 273 276 294 307 311 300 301 304 312 314 303 297 295 287 281 276 269 264 265 268 270 274 277 279 280 281
274 275 277 279 279 287 295 291 281 276 275 276 274 273 274 280 280 280 289 293 293 298 307 299 304 310 320 334 323 300 292 286 282 277 273 270 269 264 265 272 277 279 281 283
269 274 279 285 283 282 289 295 293 286 283 282 279 277 278 285 289 279 282 295 301 302 300 298 308 314 327 325 301 291 284 281 280 278 274 272 272 267 262 264 271 278 280 282
267 272 275 269 269 275 283 296 300 298 296 297 296 291 280 271 274 289 292 288 291 301 299 301 311 321 326 302 292 288 285 277 273 276 275 273 272 273 270 266 265 270 274 277
269 271 270 267 270 279 284 284 288 293 295 299 304 301 298 293 284 285 289 291 290 298 305 305 309 314 308 299 292 288 286 286 288 288 279 276 273 272 272 271 273 272 273 274
283 286 286 289 287 279 272 270 275 282 281 281 293 300 303 308 308 305 300 299 303 308 311 311 309 306 302 298 295 293 289 286 281 279 276 273 272 272 275 277 277 277 276 274
Height
1517 1517 1517 1515 1514 1515 1514 1505 1500 1489 1489 1484 1486 1487 1486 1484 1482 1480 1477 1474 1472 1470 1467 1465 1463 1462 1460 1458 1457 1456 1455 1454 1453 1453 1452 1452 1452 1453 1454 1454 1455 1456 1457 1458
1518 1516 1516 1513 1509 1508 1508 1505 1500 1494 1489 1485 1486 1485 1483 1481 1479 1477 1474 1472 1469 1467 1464 1462 1460 1458 1456 1454 1453 1451 1450 1448 1448 1448 1447 1447 1447 1448 1448 1449 1450 1450 1451 1452
1508 1514 1513 1500 1497 1500 1500 1497 1497 1490 1484 1483 1484 1482 1480 1478 1476 1474 1471 1469 1466 1464 1461 1459 1457 1455 1452 1450 1449 1447 1445 1443 1443 1443 1442 1442 1442 1443 1443 1444 1444 1445 1445 1446
1512 1512 1502 1487 1496 1495 1495 1493 1492 1488 1485 1483 1482 1480 1477 1476 1474 1471 1469 1466 1463 1460 1458 1456 1454 1451 1449 1447 1445 1443 1441 1440 1439 1439 1438 1438 1438 1438 1439 1439 1439 1439 1440 1441
1512 1504 1491 1488 1493 1494 1494 1487 1486 1485 1482 1481 1479 1477 1473 1472 1471 1469 1466 1463 1461 1458 1455 1453 1450 1448 1445 1443 1441 1440 1438 1436 1436 1435 1434 1434 1433 1434 1434 1434 1434 1434 1435 1435
1512 1502 1489 1481 1490 1491 1492 1482 1480 1480 1479 1479 1478 1474 1469 1469 1467 1465 1463 1460 1457 1455 1452 1450 1447 1445 1443 1440 1438 1436 1435 1434 1432 1431 1430 1430 1430 1430 1430 1429 1429 1430 1430 1430
1507 1500 1486 1486 1489 1490 1485 1475 1477 1476 1475 1476 1475 1472 1469 1466 1464 1462 1460 1457 1454 1452 1449 1447 1444 1442 1440 1437 1435 1434 1432 1431 1429 1428 1427 1427 1426 1426 1426 1426 1426 1426 1425 1426
1503 1498 1485 1485 1487 1485 1477 1475 1474 1473 1472 1471 1470 1467 1465 1463 1461 1458 1456 1453 1451 1448 1445 1443 1441 1439 1436 1434 1433 1431 1429 1428 1426 1425 1424 1423 1423 1422 1422 1422 1422 1421 1421 1421
1490 1483 1479 1480 1478 1477 1476 1474 1472 1471 1469 1468 1466 1463 1461 1459 1457 1455 1452 1450 1448 1445 1442 1440 1437 1435 1433 1431 1430 1428 1426 1424 1423 1422 1421 1420 1419 1419 1418 1418 1418 1418 1418 1417
1487 1478 1477 1477 1475 1474 1473 1471 1469 1468 1466 1465 1462 1460 1457 1455 1453 1450 1448 1446 1444 1441 1439 1436 1434 1432 1430 1428 1426 1425 1423 1421 1420 1419 1417 1417 1416 1415 1415 1414 1414 1414 1414 1414
1481 1475 1473 1470 1469 1469 1467 1466 1465 1463 1462 1460 1458 1455 1453 1450 1448 1446 1444 1442 1440 1438 1435 1433 1431 1429 1427 1425 1423 1421 1420 1418 1417 1416 1415 1413 1413 1412 1411 1411 1411 1411 1411 1411
1470 1469 1469 1466 1464 1464 1463 1461 1459 1458 1455 1454 1453 1451 1448 1446 1444 1442 1440 1438 1436 1434 1432 1429 1427 1425 1424 1422 1421 1419 1417 1415 1414 1413 1412 1410 1409 1409 1408 1408 1408 1408 1407 1407
1466 1465 1464 1462 1460 1459 1458 1456 1454 1453 1451 1449 1447 1446 1444 1442 1440 1438 1436 1434 1432 1430 1428 1426 1424 1422 1421 1419 1417 1416 1414 1413 1411 1410 1409 1408 1406 1405 1405 1405 1404 1404 1404 1404
1462 1462 1459 1457 1456 1455 1453 1451 1449 1448 1446 1445 1443 1441 1439 1437 1436 1434 1432 1430 1429 1427 1425 1423 1421 1419 1418 1416 1414 1413 1411 1410 1409 1407 1406 1405 1404 1403 1402 1401 1400 1400 1400 1400
1458 1457 1455 1453 1451 1450 1448 1447 1445 1443 1441 1440 1438 1437 1435 1433 1432 1430 1429 1427 1425 1424 1422 1420 1418 1416 1415 1413 1412 1410 1409 1407 1406 1405 1404 1403 1402 1401 1400 1399 1398 1397 1397 1397
1453 1452 1451 1449 1447 1445 1444 1442 1441 1439 1437 1435 1434 1433 1431 1430 1429 1427 1426 1424 1422 1420 1419 1417 1415 1414 1412 1411 1409 1408 1406 1405 1403 1402 1401 1400 1399 1399 1398 1397 1396 1395 1394 1394
1449 1447 1445 1444 1442 1441 1440 1439 1437 1435 1434 1432 1430 1429 1428 1427 1425 1424 1422 1421 1419 1418 1416 1414 1412 1411 1409 1408 1407 1405 1403 1402 1401 1400 1399 1398 1397 1396 1395 1394 1393 1392 1392 1392
1446 1445 1443 1441 1439 1437 1436 1435 1434 1432 1430 1429 1428 1426 1425 1423 1422 1420 1419 1417 1416 1414 1413 1411 1410 1408 1407 1405 1404 1402 1400 1399 1398 1397 1396 1395 1394 1394 1393 1392 1391 1390 1389 1389
1442 1441 1439 1438 1437 1435 1433 1432 1430 1429 1428 1426 1424 1423 1422 1421 1419 1418 1416 1414 1412 1411 1410 1408 1407 1405 1404 1402 1401 1399 1398 1397 1395 1394 1394 1393 1392 1391 1390 1389 1389 1388 1387 1387
1438 1437 1436 1435 1434 1432 1431 1429 1428 1426 1425 1424 1422 1421 1419 1418 1417 1415 1413 1412 1410 1408 1407 1405 1404 1402 1401 1400 1398 1397 1396 1394 1393 1392 1391 1390 1389 1389 1388 1387 1386 1385 1385 1384
1435 1434 1433 1432 1430 1429 1428 1427 1425 1423 1422 1421 1419 1418 1416 1415 1414 1412 1410 1408 1407 1406 1404 1403 1401 1400 1399 1397 1396 1395 1393 1392 1391 1390 1389 1388 1387 1386 1385 1385 1384 1383 1383 1382
1433 1431 1430 1429 1428 1426 1425 1424 1422 1421 1419 1418 1416 1415 1413 1412 1410 1409 1407 1406 1404 1403 1401 1400 1399 1398 1397 1395 1394 1392 1391 1390 1389 1388 1387 1386 1385 1384 1383 1383 1382 1381 1381 1380
1430 1429 1427 1426 1425 1423 1422 1421 1419 1418 1416 1415 1414 1412 1411 1409 1408 1406 1404 1403 1402 1400 1399 1398 1397 1396 1394 1393 1392 1390 1389 1388 1387 1386 1385 1384 1383 1382 1382 1381 1380 1380 1379 1378
1426 1426 1425 1423 1422 1420 1419 1417 1416 1415 1414 1412 1411 1410 1408 1406 1405 1404 1402 1401 1399 1398 1396 1395 1394 1393 1392 1390 1389 1388 1387 1386 1385 1384 1383 1382 1381 1380 1380 1379 1378 1378 1377 1376
1423 1422 1421 1420 1419 1417 1416 1414 1413 1412 1411 1409 1408 1407 1405 1404 1402 1401 1399 1398 1397 1395 1394 1393 1392 1391 1389 1388 1387 1385 1384 1383 1383 1382 1381 1380 1379 1378 1378 1377 1377 1376 1375 1375
1420 1419 1418 1417 1416 1415 1413 1412 1410 1409 1408 1407 1405 1404 1403 1401 1400 1398 1397 1395 1394 1393 1392 1390 1389 1388 1387 1386 1384 1383 1382 1381 1380 1379 1379 1378 1377 1377 1376 1375 1375 1374 1374 1373
1417 1416 1415 1414 1413 1412 1411 1409 1408 1407 1406 1404 1403 1401 1400 1399 1397 1396 1394 1393 1392 1390 1389 1388 1387 1386 1384 1383 1382 1381 1380 1379 1378 1378 1377 1376 1375 1375 1374 1373 1373 1372 1371 1371